Date,TemperatureHighF,TemperatureAvgF,TemperatureLowF,DewpointHighF,DewpointAvgF,DewpointLowF,HumidityHigh,HumidityAvg,HumidityLow,PressureMaxIn,PressureMinIn,WindSpeedMaxMPH,WindSpeedAvgMPH,GustSpeedMaxMPH,PrecipitationSumIn
2013-2-19,57.4,45.0,37.6,48.3,35.0,20.7,96,72,44,30.10,29.94,4,1,15,0.35
2013-2-20,56.4,41.1,30.7,25.1,20.5,17.4,62,46,25,30.15,30.06,3,1,6,0.00
2013-2-21,65.5,51.2,28.5,42.0,28.3,19.2,90,45,22,30.17,29.92,2,1,4,0.15
2013-2-22,44.1,41.2,39.5,41.6,40.1,38.5,98,96,90,30.15,30.02,2,1,6,1.44
2013-2-23,49.2,43.3,40.8,47.8,42.7,40.3,98,98,94,30.05,29.89,0,0,4,0.57
2013-2-27,58.6,51.5,42.3,40.5,37.5,34.9,77,60,44,29.86,29.75,5,2,9,0.00
2013-2-28,48.0,40.8,34.3,38.4,31.8,27.2,81,70,56,29.95,29.79,2,1,8,0.00
2013-3-1,42.7,37.5,32.4,32.5,30.6,26.6,85,76,66,29.98,29.92,2,0,7,0.00
2013-3-2,43.4,36.5,31.9,35.8,30.5,26.1,93,79,59,30.01,29.91,2,1,10,0.00
2013-3-3,46.0,34.8,26.6,26.4,23.2,19.7,85,64,40,30.07,29.98,4,1,10,0.00
2013-3-4,60.5,42.5,25.2,33.3,25.4,20.1,84,55,27,30.17,29.99,3,0,6,0.00
2013-3-5,64.5,50.2,37.8,55.8,43.2,29.9,93,77,69,30.04,29.61,7,2,13,0.34
2013-3-6,43.5,35.7,31.1,32.5,28.4,22.8,85,75,65,30.17,29.83,4,2,13,0.00
2013-3-7,60.9,42.5,29.0,37.6,31.5,26.7,92,68,37,30.25,30.12,3,1,8,0.00
2013-3-8,66.6,45.7,27.1,35.3,29.1,24.8,94,58,24,30.29,30.15,3,0,8,0.00
2013-3-9,62.4,48.9,35.5,37.9,31.9,26.1,79,54,34,30.31,30.18,2,0,6,0.00
2013-3-10,69.8,55.2,45.9,41.7,37.3,34.0,70,52,29,30.19,30.04,3,1,6,0.00
2013-3-13,56.6,48.8,35.8,33.8,27.4,23.3,63,44,32,30.19,30.06,4,2,10,0.00
2013-3-14,56.5,42.4,26.6,27.5,22.2,17.2,76,47,26,30.33,30.17,5,1,10,0.00
2013-3-15,73.8,54.3,33.6,47.0,38.0,26.6,90,58,34,30.20,29.91,5,1,10,0.00
2013-3-16,77.9,64.2,51.3,48.9,44.5,40.5,75,51,29,29.93,29.78,6,2,11,0.00
2013-3-17,71.3,61.9,48.9,56.3,49.6,42.9,89,65,49,29.93,29.81,4,1,11,0.00
2013-3-18,48.2,47.2,45.6,45.8,45.2,44.2,95,93,89,29.93,29.81,2,1,3,0.00
2013-3-20,60.7,48.1,37.7,30.7,24.5,15.1,72,43,21,30.08,29.84,4,1,7,0.00
2013-3-21,49.1,39.3,29.2,30.6,20.0,13.1,74,49,26,29.94,29.84,4,1,8,0.00
2013-3-22,50.4,42.1,29.8,36.1,29.7,18.1,71,62,51,29.99,29.93,1,0,8,0.00
2013-3-23,53.7,47.0,41.9,50.3,44.1,35.9,97,90,67,29.99,29.77,2,0,3,1.05
2013-3-24,49.3,47.4,41.6,47.6,46.0,34.8,97,95,77,29.79,29.47,4,1,9,1.38
2013-3-25,43.5,37.8,33.0,35.1,27.6,26.0,78,67,55,30.04,29.64,4,2,11,0.00
2013-3-26,45.6,36.2,30.5,32.9,28.4,26.4,90,74,52,30.27,30.02,3,1,11,0.00
2013-3-27,57.7,41.2,27.4,34.1,27.4,24.7,91,62,34,30.33,30.19,3,1,7,0.00
2013-3-28,64.7,45.1,29.7,35.6,29.3,25.7,88,59,28,30.31,30.17,3,1,10,0.00
2013-3-29,68.5,51.0,35.7,39.9,33.6,28.6,85,55,29,30.30,30.13,3,0,10,0.00
2013-3-30,72.3,57.8,44.7,55.0,44.7,37.3,96,65,36,30.14,29.94,4,0,6,0.43
2013-3-31,66.8,59.4,55.1,62.2,56.6,54.2,97,91,78,29.96,29.78,3,1,8,0.32
2013-4-1,72.7,61.3,51.6,57.1,49.1,41.2,98,69,34,29.95,29.78,3,0,8,0.02
2013-4-2,68.6,54.1,40.7,43.1,36.0,27.9,91,55,27,30.10,29.94,3,0,10,0.00
2013-4-3,53.7,47.1,41.7,37.6,32.7,27.6,77,58,41,30.13,30.02,1,0,5,0.00
2013-4-4,43.9,41.1,39.8,41.5,39.7,38.5,96,95,90,30.06,29.93,3,1,8,0.35
2013-4-5,68.8,53.0,40.8,51.5,42.4,35.5,97,72,32,30.01,29.89,2,0,6,0.00
2013-4-6,49.4,44.8,41.4,40.2,38.7,37.3,87,79,70,30.03,30.01,0,0,3,0.00
2013-4-8,77.6,70.3,59.2,59.3,55.6,52.8,84,61,45,30.08,29.97,4,2,11,0.00
2013-4-9,82.0,67.3,53.2,62.7,56.8,51.8,96,72,44,30.11,29.98,2,0,8,0.00
2013-4-10,61.5,59.9,58.1,56.2,55.8,55.2,90,86,83,30.03,29.99,0,0,4,0.00
2013-4-16,81.1,73.6,63.6,66.7,63.9,60.9,92,73,59,30.14,30.06,1,0,4,0.00
2013-4-17,82.5,67.8,62.0,67.3,62.8,60.6,96,85,57,30.14,30.07,2,0,6,0.00
2013-5-3,58.9,58.3,57.6,57.8,57.0,55.9,96,95,94,29.93,29.90,1,0,3,0.08
2013-5-4,57.5,53.1,49.4,55.8,52.0,48.6,98,96,88,29.91,29.78,1,0,3,0.75
2013-5-5,54.3,54.0,53.6,54.0,53.5,53.0,99,98,98,29.78,29.70,1,0,2,0.10
2013-5-7,68.7,62.4,54.3,60.0,55.3,53.3,98,79,61,29.91,29.83,2,0,4,0.13
2013-5-8,77.4,63.4,50.7,63.4,56.9,49.9,98,81,54,29.98,29.88,2,0,5,0.00
2013-5-9,81.9,67.7,54.5,66.6,59.0,53.7,98,76,46,30.03,29.94,2,0,6,0.00
2013-5-10,78.4,67.2,55.6,66.5,60.6,54.8,98,81,57,30.00,29.86,2,0,7,0.00
2013-5-11,75.7,67.4,59.0,66.4,62.4,57.6,96,85,68,29.90,29.77,2,0,5,0.00
2013-5-12,69.8,60.1,48.5,60.6,48.2,36.6,94,69,37,30.02,29.83,2,0,5,0.00
2013-5-13,69.8,55.4,40.9,45.4,40.3,36.8,91,61,33,30.17,30.02,2,0,5,0.00
2013-5-14,78.6,61.4,42.7,57.2,49.0,40.1,92,67,40,30.20,30.02,2,0,4,0.00
2013-5-15,86.3,71.4,57.1,63.8,58.4,54.4,92,66,40,30.07,29.91,2,0,5,0.00
2013-5-16,66.8,62.7,60.4,58.5,57.7,57.1,90,84,73,29.94,29.91,0,0,3,0.00